TimeCST,TemperatureF,Dew PointF,Humidity,Sea Level PressureIn,VisibilityMPH,Wind Direction,Wind SpeedMPH,Gust SpeedMPH,PrecipitationIn,Events,Conditions,WindDirDegrees,DateUTC
12:55 AM,27.9,26.4,94,29.96,10.0,Calm,Calm,-,N/A,,Clear,0,2012-11-30 06:55:00
1:44 AM,28.4,28.4,100,29.97,2.5,Calm,Calm,-,N/A,,Clear,0,2012-11-30 07:44:00
1:53 AM,26.6,26.6,100,29.98,3.0,Calm,Calm,-,N/A,,Clear,0,2012-11-30 07:53:00
1:55 AM,26.8,26.1,97,29.98,4.0,Calm,Calm,-,N/A,,Clear,0,2012-11-30 07:55:00
1:56 AM,26.6,26.6,100,29.96,10.0,Calm,Calm,-,N/A,,Clear,0,2012-11-30 07:56:00
2:07 AM,26.6,24.8,93,29.95,10.0,Calm,Calm,-,N/A,,Clear,0,2012-11-30 08:07:00
2:20 AM,26.6,24.8,93,29.99,2.5,Calm,Calm,-,N/A,,Clear,0,2012-11-30 08:20:00
2:21 AM,26.6,24.8,93,29.99,1.8,Calm,Calm,-,N/A,,Clear,0,2012-11-30 08:21:00
2:27 AM,30.2,28.4,93,29.99,2.0,Calm,Calm,-,N/A,,Clear,0,2012-11-30 08:27:00
2:28 AM,30.2,30.2,100,29.96,2.5,WSW,3.5,-,N/A,,Clear,240,2012-11-30 08:28:00
2:29 AM,30.2,30.2,100,29.96,10.0,WSW,3.5,-,N/A,,Clear,240,2012-11-30 08:29:00
2:56 AM,28.4,28.4,100,30.09,10.0,West,3.5,-,N/A,,Clear,280,2012-11-30 08:56:00
2:57 AM,32.0,28.4,87,30.01,10.0,WNW,10.4,-,N/A,,Clear,300,2012-11-30 08:57:00
3:58 AM,32.0,28.4,87,30.01,10.0,WNW,10.4,-,N/A,,Clear,300,2012-11-30 09:58:00
4:55 AM,33.8,28.0,79,30.03,10.0,WNW,8.1,-,N/A,,Clear,290,2012-11-30 10:55:00
5:55 AM,32.5,27.5,82,30.06,10.0,WNW,8.1,-,N/A,,Clear,300,2012-11-30 11:55:00
6:55 AM,30.4,26.1,84,30.08,10.0,WNW,6.9,-,N/A,,Clear,300,2012-11-30 12:55:00
7:55 AM,29.8,25.9,85,30.09,10.0,WNW,9.2,-,N/A,,Clear,300,2012-11-30 13:55:00
8:55 AM,33.1,27.3,79,30.10,10.0,NNW,5.8,-,N/A,,Clear,330,2012-11-30 14:55:00
9:55 AM,35.8,28.0,73,30.12,10.0,West,4.6,-,N/A,,Clear,280,2012-11-30 15:55:00
10:55 AM,39.9,29.3,66,30.12,10.0,Calm,Calm,-,N/A,,Clear,0,2012-11-30 16:55:00
11:55 AM,41.9,30.7,65,30.11,10.0,NW,3.5,-,N/A,,Clear,310,2012-11-30 17:55:00
12:55 PM,43.3,31.1,62,30.09,10.0,Calm,Calm,-,N/A,,Clear,0,2012-11-30 18:55:00
1:55 PM,44.8,31.5,60,30.07,10.0,NNE,3.5,-,N/A,,Clear,20,2012-11-30 19:55:00
2:55 PM,45.0,32.2,61,30.06,10.0,NE,5.8,-,N/A,,Clear,40,2012-11-30 20:55:00
3:55 PM,45.1,31.8,60,30.06,10.0,Calm,Calm,-,N/A,,Clear,0,2012-11-30 21:55:00
4:55 PM,40.5,31.3,70,30.05,9.0,Calm,Calm,-,N/A,,Scattered Clouds,0,2012-11-30 22:55:00
5:55 PM,33.4,28.9,84,30.06,10.0,Calm,Calm,-,N/A,,Clear,0,2012-11-30 23:55:00
6:55 PM,30.2,27.3,89,30.04,10.0,East,4.6,-,N/A,,Clear,90,2012-12-01 00:55:00
7:55 PM,28.0,26.4,94,30.04,10.0,East,3.5,-,N/A,,Clear,100,2012-12-01 01:55:00
8:55 PM,27.1,25.2,92,30.03,10.0,East,3.5,-,N/A,,Clear,100,2012-12-01 02:55:00
9:55 PM,28.9,27.7,95,30.01,10.0,Calm,Calm,-,N/A,,Clear,0,2012-12-01 03:55:00
10:55 PM,27.0,25.0,92,30.01,10.0,East,4.6,-,N/A,,Clear,100,2012-12-01 04:55:00
11:55 PM,30.0,29.3,97,29.99,10.0,East,5.8,-,N/A,,Clear,100,2012-12-01 05:55:00